FW4301 Weather Reports


Display with metric or nautical units.
time (UTC)temp
F
wind
direction
speed
MPH
gust
MPH
rain 1hr
in
rain 24hr
in
rain mn
in
humidity
%
barometer
mb
20260902005528 95 0 0.0 0.0 0.00 0.00 0.00 34 1013.2
20260902005029 95 0 0.0 0.0 0.00 0.00 0.00 34 1013.2
20260902004602 96 0 0.0 0.0 0.00 0.00 0.00 33 1013.1
20260902004028 96 0 0.0 0.0 0.00 0.00 0.00 33 1013.1
20260902003528 96 0 0.0 0.0 0.00 0.00 0.00 33 1013.1
20260902003057 97 0 0.0 0.0 0.00 0.00 0.00 32 1013.1
20260902002528 97 0 0.0 0.0 0.00 0.00 0.00 32 1013.1
20260902002028 97 0 0.0 0.0 0.00 0.00 0.00 32 1013.1
20260902001605 97 0 0.0 0.0 0.00 0.00 0.00 31 1013.2
20260902001028 98 0 0.0 0.0 0.00 0.00 0.00 31 1013.2
20260902000528 98 0 0.0 0.0 0.00 0.00 0.00 31 1013.2
20260902000051 98 0 0.0 0.0 0.00 0.00 0.00 30 1013.2
20260901235529 99 0 0.0 0.0 0.00 0.00 0.00 30 1013.2
20260901235030 99 0 0.0 0.0 0.00 0.00 0.00 29 1013.3
20260901234606 100 0 0.0 0.0 0.00 0.00 0.00 28 1013.2
20260901234028 101 0 0.0 0.0 0.00 0.00 0.00 28 1013.2
20260901233529 101 0 0.0 0.0 0.00 0.00 0.00 27 1013.3
20260901233104 102 0 0.0 0.0 0.00 0.00 0.00 27 1013.3
20260901232529 103 0 0.0 0.0 0.00 0.00 0.00 27 1013.4
20260901232030 103 0 0.0 0.0 0.00 0.00 0.00 27 1013.4
20260901231554 103 0 0.0 0.0 0.00 0.00 0.00 27 1013.2
20260901231029 103 0 0.0 0.0 0.00 0.00 0.00 27 1013.2
20260901230530 103 0 0.0 0.0 0.00 0.00 0.00 28 1013.3
20260901230052 102 0 0.0 0.0 0.00 0.00 0.00 28 1013.4
20260901225529 102 0 0.0 0.0 0.00 0.00 0.00 30 1013.4
20260901225028 101 0 0.0 0.0 0.00 0.00 0.00 30 1013.3
20260901224553 100 0 0.0 0.0 0.00 0.00 0.00 30 1013.4
20260901224028 100 0 0.0 0.0 0.00 0.00 0.00 30 1013.5
20260901223528 100 0 0.0 0.0 0.00 0.00 0.00 29 1013.4
20260901223053 100 0 0.0 0.0 0.00 0.00 0.00 28 1013.4
20260901222530 100 0 0.0 0.0 0.00 0.00 0.00 28 1013.5
20260901222030 100 0 0.0 0.0 0.00 0.00 0.00 26 1013.5
20260901221551 100 0 0.0 0.0 0.00 0.00 0.00 27 1013.5
20260901221028 100 0 0.0 0.0 0.00 0.00 0.00 28 1013.5
20260901220528 100 0 0.0 0.0 0.00 0.00 0.00 29 1013.5
20260901220048 100 0 0.0 0.0 0.00 0.00 0.00 27 1013.5
20260901215529 100 0 0.0 0.0 0.00 0.00 0.00 29 1013.5
20260901215029 100 0 0.0 0.0 0.00 0.00 0.00 29 1013.6
20260901214605 100 0 0.0 0.0 0.00 0.00 0.00 28 1013.8
20260901214029 100 0 0.0 0.0 0.00 0.00 0.00 29 1013.8
20260901213527 101 0 0.0 0.0 0.00 0.00 0.00 29 1013.7
20260901213129 101 0 0.0 0.0 0.00 0.00 0.00 29 1013.8
20260901212528 101 0 0.0 0.0 0.00 0.00 0.00 28 1013.8
20260901212029 102 0 0.0 0.0 0.00 0.00 0.00 27 1013.9
20260901211552 102 0 0.0 0.0 0.00 0.00 0.00 28 1013.9
20260901211030 103 0 0.0 0.0 0.00 0.00 0.00 28 1014.0
20260901210530 103 0 0.0 0.0 0.00 0.00 0.00 27 1014.1
20260901210059 104 0 0.0 0.0 0.00 0.00 0.00 25 1014.2
20260901205529 105 0 0.0 0.0 0.00 0.00 0.00 25 1014.1
20260901205029 106 0 0.0 0.0 0.00 0.00 0.00 24 1014.2
20260901204554 107 0 0.0 0.0 0.00 0.00 0.00 24 1014.2
20260901204028 107 0 0.0 0.0 0.00 0.00 0.00 24 1014.3
20260901203529 108 0 0.0 0.0 0.00 0.00 0.00 23 1014.3
20260901203115 108 0 0.0 0.0 0.00 0.00 0.00 22 1014.4
20260901202529 108 0 0.0 0.0 0.00 0.00 0.00 23 1014.5
20260901202029 108 0 0.0 0.0 0.00 0.00 0.00 24 1014.5
20260901201556 108 0 0.0 0.0 0.00 0.00 0.00 24 1014.6
20260901201031 108 0 0.0 1.0 0.00 0.00 0.00 25 1014.5
20260901200531 107 0 0.0 1.0 0.00 0.00 0.00 26 1014.5
20260901200053 108 0 0.0 1.0 0.00 0.00 0.00 21 1014.6
20260901195532 108 0 0.0 0.0 0.00 0.00 0.00 24 1014.7
20260901195032 109 0 0.0 0.0 0.00 0.00 0.00 22 1014.7
20260901194602 109 0 0.0 0.0 0.00 0.00 0.00 25 1014.7
20260901194032 108 0 0.0 0.0 0.00 0.00 0.00 26 1014.8
20260901193529 108 0 0.0 0.0 0.00 0.00 0.00 24 1014.7
20260901193103 107 0 0.0 0.0 0.00 0.00 0.00 24 1014.9
20260901192529 106 0 0.0 1.0 0.00 0.00 0.00 26 1014.9
20260901192030 107 0 0.0 1.0 0.00 0.00 0.00 21 1015.1
20260901191610 108 0 0.0 0.0 0.00 0.00 0.00 21 1015.1
20260901191029 108 0 0.0 0.0 0.00 0.00 0.00 26 1015.2
20260901190532 107 0 0.0 0.0 0.00 0.00 0.00 27 1015.2
20260901190053 106 0 0.0 0.0 0.00 0.00 0.00 26 1015.2
20260901185531 106 0 0.0 0.0 0.00 0.00 0.00 27 1015.3
20260901185031 104 0 0.0 0.0 0.00 0.00 0.00 28 1015.4
20260901184601 103 0 0.0 0.0 0.00 0.00 0.00 28 1015.4
20260901184029 102 0 0.0 1.0 0.00 0.00 0.00 29 1015.6
20260901183533 101 0 0.0 1.0 0.00 0.00 0.00 30 1015.7
20260901183100 100 0 0.0 1.0 0.00 0.00 0.00 29 1016.0
20260901182532 100 0 0.0 0.0 0.00 0.00 0.00 31 1016.0
20260901182032 100 0 0.0 0.0 0.00 0.00 0.00 30 1016.2
20260901181552 100 0 0.0 0.0 0.00 0.00 0.00 29 1016.4
20260901181033 100 0 0.0 0.0 0.00 0.00 0.00 33 1016.5
20260901180529 100 0 0.0 0.0 0.00 0.00 0.00 33 1016.5
20260901180052 99 0 0.0 0.0 0.00 0.00 0.00 32 1016.6
20260901175532 99 0 0.0 0.0 0.00 0.00 0.00 33 1016.6
20260901175029 99 0 0.0 0.0 0.00 0.00 0.00 32 1016.6
20260901174602 98 0 0.0 0.0 0.00 0.00 0.00 32 1016.7
20260901174030 99 0 0.0 0.0 0.00 0.00 0.00 32 1016.8
20260901173534 100 0 0.0 0.0 0.00 0.00 0.00 30 1016.9
20260901173055 100 0 0.0 0.0 0.00 0.00 0.00 30 1016.9
20260901172532 101 0 0.0 0.0 0.00 0.00 0.00 31 1017.0
20260901172032 101 0 0.0 0.0 0.00 0.00 0.00 31 1017.0
20260901171554 101 0 0.0 1.0 0.00 0.00 0.00 31 1017.0
20260901171032 101 0 0.0 1.0 0.00 0.00 0.00 29 1017.0
20260901170529 101 0 0.0 0.0 0.00 0.00 0.00 30 1017.1
20260901170052 100 0 0.0 0.0 0.00 0.00 0.00 35 1017.2
20260901165528 99 0 0.0 0.0 0.00 0.00 0.00 35 1017.3
20260901165029 97 0 0.0 0.0 0.00 0.00 0.00 37 1017.2
20260901164558 96 0 0.0 0.0 0.00 0.00 0.00 40 1017.3
20260901164032 95 0 0.0 0.0 0.00 0.00 0.00 37 1017.4
20260901163532 95 0 0.0 0.0 0.00 0.00 0.00 37 1017.3
20260901163100 94 0 0.0 0.0 0.00 0.00 0.00 38 1017.4
20260901162531 94 0 0.0 0.0 0.00 0.00 0.00 39 1017.4
20260901162032 93 0 0.0 0.0 0.00 0.00 0.00 39 1017.5
20260901161554 93 0 0.0 0.0 0.00 0.00 0.00 40 1017.5
20260901161030 92 0 0.0 0.0 0.00 0.00 0.00 41 1017.5
20260901160529 92 0 0.0 0.0 0.00 0.00 0.00 42 1017.5
20260901160056 92 0 0.0 0.0 0.00 0.00 0.00 41 1017.5
20260901155532 91 0 0.0 0.0 0.00 0.00 0.00 42 1017.5
20260901155033 91 0 0.0 0.0 0.00 0.00 0.00 44 1017.5
20260901154556 90 0 0.0 1.0 0.00 0.00 0.00 44 1017.5
20260901154029 90 0 0.0 1.0 0.00 0.00 0.00 45 1017.5
20260901153531 90 0 0.0 1.0 0.00 0.00 0.00 44 1017.5
20260901153051 89 0 0.0 1.0 0.00 0.00 0.00 45 1017.5
20260901152530 89 0 0.0 0.0 0.00 0.00 0.00 46 1017.5
20260901152029 89 0 0.0 0.0 0.00 0.00 0.00 46 1017.4
20260901151557 88 0 0.0 0.0 0.00 0.00 0.00 47 1017.4
20260901151031 88 0 0.0 0.0 0.00 0.00 0.00 48 1017.5
20260901150531 87 0 0.0 0.0 0.00 0.00 0.00 48 1017.4
20260901150056 87 0 0.0 0.0 0.00 0.00 0.00 51 1017.4
20260901145529 86 0 0.0 0.0 0.00 0.00 0.00 52 1017.5
20260901145032 86 0 0.0 0.0 0.00 0.00 0.00 52 1017.5
20260901144553 85 0 0.0 0.0 0.00 0.00 0.00 53 1017.6
20260901144030 85 0 0.0 0.0 0.00 0.00 0.00 54 1017.5
20260901143529 84 0 0.0 0.0 0.00 0.00 0.00 55 1017.5
20260901143100 84 0 0.0 0.0 0.00 0.00 0.00 55 1017.5
20260901142532 84 0 0.0 0.0 0.00 0.00 0.00 56 1017.5
20260901142030 83 0 0.0 0.0 0.00 0.00 0.00 56 1017.5
20260901141552 82 0 0.0 0.0 0.00 0.00 0.00 57 1017.7
20260901141029 82 0 0.0 0.0 0.00 0.00 0.00 58 1017.6
20260901140531 81 0 0.0 0.0 0.00 0.00 0.00 59 1017.6
20260901140100 81 0 0.0 0.0 0.00 0.00 0.00 59 1017.7
20260901135531 80 0 0.0 0.0 0.00 0.00 0.00 60 1017.7
20260901135029 80 0 0.0 0.0 0.00 0.00 0.00 61 1017.8
20260901134555 79 0 0.0 0.0 0.00 0.00 0.00 62 1017.9
20260901134028 79 0 0.0 0.0 0.00 0.00 0.00 62 1017.8
20260901133529 78 0 0.0 0.0 0.00 0.00 0.00 63 1017.8
20260901133051 78 0 0.0 0.0 0.00 0.00 0.00 64 1017.7
20260901132529 77 0 0.0 0.0 0.00 0.00 0.00 64 1017.6
20260901132030 77 0 0.0 0.0 0.00 0.00 0.00 64 1017.7
20260901131548 76 0 0.0 0.0 0.00 0.00 0.00 64 1017.6
20260901131026 76 0 0.0 0.0 0.00 0.00 0.00 64 1017.7
20260901130526 76 0 0.0 0.0 0.00 0.00 0.00 64 1017.6
20260901130056 76 0 0.0 0.0 0.00 0.00 0.00 64 1017.7
20260901125529 76 0 0.0 0.0 0.00 0.00 0.00 64 1017.6
20260901125027 75 0 0.0 0.0 0.00 0.00 0.00 63 1017.5
20260901124553 75 0 0.0 0.0 0.00 0.00 0.00 63 1017.4
20260901124029 75 0 0.0 0.0 0.00 0.00 0.00 63 1017.4
20260901123528 75 0 0.0 0.0 0.00 0.00 0.00 63 1017.3
20260901123052 75 0 0.0 0.0 0.00 0.00 0.00 63 1017.2
20260901122530 75 0 0.0 0.0 0.00 0.00 0.00 63 1017.1
20260901122028 75 0 0.0 0.0 0.00 0.00 0.00 63 1016.9
20260901121558 75 0 0.0 0.0 0.00 0.00 0.00 63 1016.7
20260901121029 76 0 0.0 0.0 0.00 0.00 0.00 63 1016.7
20260901120529 76 0 0.0 0.0 0.00 0.00 0.00 63 1016.7
20260901120058 76 0 0.0 0.0 0.00 0.00 0.00 63 1016.6
20260901115530 76 0 0.0 0.0 0.00 0.00 0.00 63 1016.5
20260901115032 76 0 0.0 0.0 0.00 0.00 0.00 63 1016.5
20260901114549 76 0 0.0 0.0 0.00 0.00 0.00 63 1016.5
20260901114028 76 0 0.0 0.0 0.00 0.00 0.00 63 1016.5
20260901113529 76 0 0.0 0.0 0.00 0.00 0.00 63 1016.6
20260901113048 76 0 0.0 0.0 0.00 0.00 0.00 62 1016.5
20260901112528 76 0 0.0 0.0 0.00 0.00 0.00 62 1016.5
20260901112028 76 0 0.0 0.0 0.00 0.00 0.00 62 1016.5
20260901111559 76 0 0.0 0.0 0.00 0.00 0.00 62 1016.5
20260901111031 76 0 0.0 0.0 0.00 0.00 0.00 62 1016.4
20260901110529 76 0 0.0 0.0 0.00 0.00 0.00 62 1016.3
20260901110055 76 0 0.0 0.0 0.00 0.00 0.00 62 1016.3
20260901105529 76 0 0.0 0.0 0.00 0.00 0.00 61 1016.4
20260901105032 76 0 0.0 0.0 0.00 0.00 0.00 60 1016.3
20260901104551 75 0 0.0 0.0 0.00 0.00 0.00 60 1016.2
20260901104029 76 0 0.0 0.0 0.00 0.00 0.00 59 1016.2
20260901103528 76 0 0.0 0.0 0.00 0.00 0.00 59 1016.2
20260901103058 76 0 0.0 0.0 0.00 0.00 0.00 58 1016.1
20260901102532 76 0 0.0 0.0 0.00 0.00 0.00 58 1016.0
20260901102026 76 0 0.0 0.0 0.00 0.00 0.00 57 1016.1
20260901101610 76 0 0.0 0.0 0.00 0.00 0.00 57 1016.1
20260901101030 76 0 0.0 0.0 0.00 0.00 0.00 56 1016.1
20260901100532 76 0 0.0 0.0 0.00 0.00 0.00 57 1016.1
20260901100053 76 0 0.0 0.0 0.00 0.00 0.00 57 1016.1
20260901095528 76 0 0.0 0.0 0.00 0.00 0.00 57 1016.1
20260901095027 76 0 0.0 0.0 0.00 0.00 0.00 57 1016.2
20260901094557 76 0 0.0 0.0 0.00 0.00 0.00 57 1016.2
20260901094029 76 0 0.0 0.0 0.00 0.00 0.00 58 1016.2
20260901093529 76 0 0.0 0.0 0.00 0.00 0.00 56 1016.3
20260901093054 76 0 0.0 0.0 0.00 0.00 0.00 55 1016.2
20260901092529 77 0 0.0 0.0 0.00 0.00 0.00 55 1016.2
20260901092033 77 0 0.0 0.0 0.00 0.00 0.00 54 1016.3
20260901091559 77 0 0.0 0.0 0.00 0.00 0.00 55 1016.3
20260901091027 77 0 0.0 0.0 0.00 0.00 0.00 55 1016.2
20260901090528 77 0 0.0 0.0 0.00 0.00 0.00 55 1016.3
20260901090050 77 0 0.0 0.0 0.00 0.00 0.00 55 1016.2
20260901085529 77 0 0.0 0.0 0.00 0.00 0.00 54 1016.2
20260901085029 77 0 0.0 0.0 0.00 0.00 0.00 54 1016.3
20260901084557 77 0 0.0 0.0 0.00 0.00 0.00 53 1016.2
20260901084029 77 0 0.0 0.0 0.00 0.00 0.00 52 1016.1
20260901083529 78 0 0.0 0.0 0.00 0.00 0.00 52 1016.0
20260901083053 78 0 0.0 0.0 0.00 0.00 0.00 53 1016.1
20260901082533 78 0 0.0 0.0 0.00 0.00 0.00 51 1016.1
20260901082028 78 0 0.0 0.0 0.00 0.00 0.00 52 1016.2
20260901081554 78 0 0.0 0.0 0.00 0.00 0.00 53 1016.2
20260901081029 78 0 0.0 0.0 0.00 0.00 0.00 52 1016.2
20260901080528 78 0 0.0 0.0 0.00 0.00 0.00 52 1016.2
20260901080100 78 0 0.0 0.0 0.00 0.00 0.00 51 1016.2
20260901075528 78 0 0.0 0.0 0.00 0.00 0.00 51 1016.3
20260901075031 78 0 0.0 0.0 0.00 0.00 0.00 51 1016.3
20260901074601 78 0 0.0 0.0 0.00 0.00 0.00 52 1016.2
20260901074043 78 0 0.0 0.0 0.00 0.00 0.00 52 1016.2
20260901073528 78 0 0.0 0.0 0.00 0.00 0.00 52 1016.2
20260901073101 79 0 0.0 0.0 0.00 0.00 0.00 52 1016.2
20260901072529 78 0 0.0 0.0 0.00 0.00 0.00 52 1016.2
20260901072029 78 0 0.0 0.0 0.00 0.00 0.00 52 1016.1
20260901071557 78 0 0.0 0.0 0.00 0.00 0.00 51 1016.1
20260901071029 78 0 0.0 0.0 0.00 0.00 0.00 52 1016.2
20260901070527 78 0 0.0 0.0 0.00 0.00 0.00 51 1016.1
20260901070105 78 0 0.0 0.0 0.00 0.00 0.00 51 1016.0
20260901065529 78 0 0.0 0.0 0.00 0.00 0.00 51 1016.0
20260901065029 79 0 0.0 0.0 0.00 0.00 0.00 51 1016.0
20260901064547 78 0 0.0 0.0 0.00 0.00 0.00 50 1015.9
20260901064027 79 0 0.0 0.0 0.00 0.00 0.00 50 1015.9
20260901063528 79 0 0.0 0.0 0.00 0.00 0.00 50 1015.8
20260901063110 78 0 0.0 0.0 0.00 0.00 0.00 49 1015.7
20260901062529 78 0 0.0 0.0 0.00 0.00 0.00 49 1015.7
20260901062033 78 0 0.0 0.0 0.00 0.00 0.00 49 1015.6
20260901061555 78 0 0.0 0.0 0.00 0.00 0.00 49 1015.6
20260901061029 78 0 0.0 0.0 0.00 0.00 0.00 49 1015.6
20260901060529 78 0 0.0 0.0 0.00 0.00 0.00 49 1015.6
20260901060100 78 0 0.0 0.0 0.00 0.00 0.00 50 1015.5
20260901055529 78 0 0.0 0.0 0.00 0.00 0.00 49 1015.3
20260901055031 77 0 0.0 0.0 0.00 0.00 0.00 49 1015.3
20260901054557 77 0 0.0 0.0 0.00 0.00 0.00 49 1015.2
20260901054029 77 0 0.0 0.0 0.00 0.00 0.00 50 1015.1
20260901053528 77 0 0.0 0.0 0.00 0.00 0.00 50 1015.1
20260901053115 78 0 0.0 0.0 0.00 0.00 0.00 50 1015.1
20260901052528 78 0 0.0 0.0 0.00 0.00 0.00 50 1015.0
20260901052031 78 0 0.0 0.0 0.00 0.00 0.00 50 1015.0
20260901051613 78 0 0.0 0.0 0.00 0.00 0.00 49 1014.8
20260901051029 78 0 0.0 0.0 0.00 0.00 0.00 49 1014.8
20260901050529 78 0 0.0 0.0 0.00 0.00 0.00 49 1014.8
20260901050055 79 0 0.0 0.0 0.00 0.00 0.00 50 1014.9
20260901045532 79 0 0.0 0.0 0.00 0.00 0.00 49 1014.7
20260901045031 79 0 0.0 0.0 0.00 0.00 0.00 49 1014.7
20260901044552 79 0 0.0 0.0 0.00 0.00 0.00 47 1014.7
20260901044028 79 0 0.0 0.0 0.00 0.00 0.00 46 1014.8
20260901043529 79 0 0.0 0.0 0.00 0.00 0.00 45 1014.7
20260901043100 80 0 0.0 0.0 0.00 0.00 0.00 46 1014.7
20260901042529 80 0 0.0 0.0 0.00 0.00 0.00 47 1014.7
20260901042028 80 0 0.0 0.0 0.00 0.00 0.00 45 1014.6
20260901041603 80 0 0.0 0.0 0.00 0.00 0.00 45 1014.6
20260901041028 81 0 0.0 0.0 0.00 0.00 0.00 45 1014.7
20260901040529 81 0 0.0 0.0 0.00 0.00 0.00 45 1014.7
20260901040100 81 0 0.0 0.0 0.00 0.00 0.00 44 1014.8
20260901035529 81 0 0.0 0.0 0.00 0.00 0.00 42 1014.7
20260901035026 82 0 0.0 0.0 0.00 0.00 0.00 42 1014.8
20260901034554 82 0 0.0 0.0 0.00 0.00 0.00 43 1014.8
20260901034029 82 0 0.0 0.0 0.00 0.00 0.00 42 1014.7
20260901033528 83 0 0.0 0.0 0.00 0.00 0.00 42 1014.7
20260901033052 83 0 0.0 0.0 0.00 0.00 0.00 41 1014.7
20260901032528 83 0 0.0 0.0 0.00 0.00 0.00 41 1014.7
20260901032028 83 0 0.0 0.0 0.00 0.00 0.00 40 1014.7
20260901031607 83 0 0.0 0.0 0.00 0.00 0.00 39 1014.6
20260901031032 83 0 0.0 0.0 0.00 0.00 0.00 38 1014.7
20260901030528 84 0 0.0 0.0 0.00 0.00 0.00 38 1014.7
20260901030058 84 0 0.0 0.0 0.00 0.00 0.00 38 1014.6
20260901025529 84 0 0.0 0.0 0.00 0.00 0.00 38 1014.5
20260901025032 85 0 0.0 0.0 0.00 0.00 0.00 38 1014.4
20260901024554 85 0 0.0 0.0 0.00 0.00 0.00 38 1014.3
20260901024025 85 0 0.0 0.0 0.00 0.00 0.00 37 1014.4
20260901023526 86 0 0.0 0.0 0.00 0.00 0.00 37 1014.3
20260901023052 86 0 0.0 0.0 0.00 0.00 0.00 37 1014.3
20260901022528 86 0 0.0 0.0 0.00 0.00 0.00 35 1014.3
20260901022028 87 0 0.0 0.0 0.00 0.00 0.00 35 1014.2
20260901021600 87 0 0.0 0.0 0.00 0.00 0.00 35 1014.1
20260901021028 88 0 0.0 0.0 0.00 0.00 0.00 35 1014.0
20260901020529 88 0 0.0 0.0 0.00 0.00 0.00 34 1014.0
20260901020052 88 0 0.0 0.0 0.00 0.00 0.00 34 1013.9
20260901015528 89 0 0.0 0.0 0.00 0.00 0.00 34 1013.8
20260901015028 89 0 0.0 0.0 0.00 0.00 0.00 35 1013.8
20260901014602 90 0 0.0 0.0 0.00 0.00 0.00 33 1013.7
20260901014029 90 0 0.0 0.0 0.00 0.00 0.00 33 1013.8
20260901013529 90 0 0.0 0.0 0.00 0.00 0.00 33 1013.8
20260901013057 91 0 0.0 0.0 0.00 0.00 0.00 32 1013.7
20260901012528 91 0 0.0 0.0 0.00 0.00 0.00 31 1013.8
20260901012029 91 0 0.0 0.0 0.00 0.00 0.00 31 1013.8
20260901011551 92 0 0.0 0.0 0.00 0.00 0.00 30 1013.8
20260901011030 92 0 0.0 0.0 0.00 0.00 0.00 30 1013.7
20260901010530 93 0 0.0 0.0 0.00 0.00 0.00 29 1013.7
20260901010050 93 0 0.0 0.0 0.00 0.00 0.00 29 1013.6